| time (UTC) | temp F | wind direction | speed knots | gust knots | rain 1hr in | rain 24hr in | rain mn in | humidity % | barometer mb |
| 20260503215206 | 62 | 97 | 3.5 | 11.3 | 0.00 | 0.00 | 0.00 | 67 | 1014.1 |
| 20260503214705 | 62 | 109 | 3.5 | 11.3 | 0.00 | 0.00 | 0.00 | 67 | 1014.1 |
| 20260503214524 | 62 | 130 | 2.6 | 10.4 | 0.00 | 0.00 | 0.00 | 66 | 1014.4 |
| 20260503214206 | 62 | 132 | 5.2 | 11.3 | 0.00 | 0.00 | 0.00 | 66 | 1014.1 |
| 20260503213705 | 62 | 64 | 5.2 | 10.4 | 0.00 | 0.00 | 0.00 | 66 | 1014.1 |
| 20260503213205 | 62 | 84 | 5.2 | 10.4 | 0.00 | 0.00 | 0.00 | 66 | 1014.0 |
| 20260503213015 | 62 | 95 | 4.3 | 10.4 | 0.00 | 0.00 | 0.00 | 66 | 1014.4 |
| 20260503212705 | 62 | 113 | 5.2 | 10.4 | 0.00 | 0.00 | 0.00 | 66 | 1014.1 |
| 20260503212206 | 62 | 84 | 5.2 | 8.7 | 0.00 | 0.00 | 0.00 | 66 | 1014.1 |
| 20260503211705 | 62 | 93 | 4.3 | 8.7 | 0.00 | 0.00 | 0.00 | 66 | 1014.2 |
| 20260503211514 | 62 | 106 | 3.5 | 8.7 | 0.00 | 0.00 | 0.00 | 66 | 1014.6 |
| 20260503210205 | 62 | 99 | 4.3 | 10.4 | 0.00 | 0.00 | 0.00 | 66 | 1014.4 |
| 20260503210036 | 62 | 130 | 3.5 | 10.4 | 0.00 | 0.00 | 0.00 | 66 | 1014.8 |
| 20260503205705 | 63 | 106 | 5.2 | 10.4 | 0.00 | 0.00 | 0.00 | 66 | 1014.3 |
| 20260503205205 | 63 | 92 | 4.3 | 10.4 | 0.00 | 0.00 | 0.00 | 66 | 1014.3 |
| 20260503204705 | 63 | 83 | 5.2 | 8.7 | 0.00 | 0.00 | 0.00 | 66 | 1014.2 |
| 20260503204513 | 62 | 129 | 4.3 | 8.7 | 0.00 | 0.00 | 0.00 | 66 | 1014.6 |
| 20260503204205 | 63 | 81 | 4.3 | 12.2 | 0.00 | 0.00 | 0.00 | 66 | 1014.3 |
| 20260503203205 | 63 | 90 | 6.1 | 12.2 | 0.00 | 0.00 | 0.00 | 65 | 1014.2 |
| 20260503203014 | 62 | 98 | 7.8 | 12.2 | 0.00 | 0.00 | 0.00 | 65 | 1014.5 |
| 20260503202705 | 63 | 88 | 6.1 | 12.2 | 0.00 | 0.00 | 0.00 | 65 | 1014.2 |
| 20260503202206 | 63 | 95 | 6.1 | 12.2 | 0.00 | 0.00 | 0.00 | 65 | 1014.1 |
| 20260503201705 | 63 | 92 | 5.2 | 11.3 | 0.00 | 0.00 | 0.00 | 65 | 1014.1 |
| 20260503201513 | 62 | 118 | 5.2 | 11.3 | 0.00 | 0.00 | 0.00 | 65 | 1014.4 |
| 20260503201205 | 63 | 92 | 5.2 | 11.3 | 0.00 | 0.00 | 0.00 | 65 | 1014.1 |
| 20260503200705 | 63 | 154 | 6.1 | 11.3 | 0.00 | 0.00 | 0.00 | 65 | 1014.2 |
| 20260503200206 | 63 | 98 | 6.1 | 11.3 | 0.00 | 0.00 | 0.00 | 64 | 1014.2 |
| 20260503200016 | 62 | 96 | 6.1 | 11.3 | 0.00 | 0.00 | 0.00 | 64 | 1014.6 |
| 20260503195705 | 63 | 132 | 5.2 | 10.4 | 0.00 | 0.00 | 0.00 | 64 | 1014.2 |
| 20260503195206 | 63 | 94 | 5.2 | 11.3 | 0.00 | 0.00 | 0.00 | 64 | 1014.1 |
| 20260503194705 | 63 | 128 | 5.2 | 11.3 | 0.00 | 0.00 | 0.00 | 64 | 1014.1 |
| 20260503194512 | 62 | 122 | 4.3 | 9.6 | 0.00 | 0.00 | 0.00 | 63 | 1014.5 |
| 20260503194206 | 63 | 85 | 5.2 | 11.3 | 0.00 | 0.00 | 0.00 | 63 | 1014.1 |
| 20260503193011 | 62 | 129 | 5.2 | 14.8 | 0.00 | 0.00 | 0.00 | 63 | 1014.3 |
| 20260503192206 | 63 | 84 | 5.2 | 13.0 | 0.00 | 0.00 | 0.00 | 63 | 1013.9 |
| 20260503191705 | 62 | 65 | 4.3 | 11.3 | 0.00 | 0.00 | 0.00 | 63 | 1013.9 |
| 20260503191510 | 62 | 107 | 4.3 | 9.6 | 0.00 | 0.00 | 0.00 | 63 | 1014.3 |
| 20260503191205 | 62 | 111 | 4.3 | 12.2 | 0.00 | 0.00 | 0.00 | 64 | 1013.9 |
| 20260503190705 | 62 | 76 | 4.3 | 15.6 | 0.00 | 0.00 | 0.00 | 64 | 1013.9 |
| 20260503190206 | 63 | 130 | 5.2 | 15.6 | 0.00 | 0.00 | 0.00 | 64 | 1013.8 |
| 20260503190012 | 62 | 119 | 3.5 | 12.2 | 0.00 | 0.00 | 0.00 | 64 | 1014.1 |
| 20260503185706 | 63 | 95 | 6.1 | 15.6 | 0.00 | 0.00 | 0.00 | 65 | 1013.8 |
| 20260503185206 | 63 | 115 | 5.2 | 12.2 | 0.00 | 0.00 | 0.00 | 65 | 1013.8 |
| 20260503184705 | 63 | 114 | 5.2 | 11.3 | 0.00 | 0.00 | 0.00 | 65 | 1013.8 |
| 20260503184510 | 62 | 94 | 4.3 | 10.4 | 0.00 | 0.00 | 0.00 | 65 | 1014.2 |
| 20260503184206 | 63 | 86 | 6.1 | 11.3 | 0.00 | 0.00 | 0.00 | 65 | 1013.8 |
| 20260503183706 | 63 | 88 | 6.1 | 12.2 | 0.00 | 0.00 | 0.00 | 65 | 1013.8 |
| 20260503183206 | 63 | 69 | 6.1 | 12.2 | 0.00 | 0.00 | 0.00 | 65 | 1013.6 |
| 20260503183008 | 63 | 55 | 5.2 | 12.2 | 0.00 | 0.00 | 0.00 | 65 | 1014.0 |
| 20260503181705 | 63 | 98 | 7.8 | 14.8 | 0.00 | 0.00 | 0.00 | 65 | 1013.6 |
| 20260503181507 | 63 | 101 | 8.7 | 14.8 | 0.00 | 0.00 | 0.00 | 65 | 1014.0 |
| 20260503180705 | 64 | 84 | 6.1 | 15.6 | 0.00 | 0.00 | 0.00 | 65 | 1013.7 |
| 20260503180205 | 64 | 125 | 7.8 | 15.6 | 0.00 | 0.00 | 0.00 | 64 | 1013.8 |
| 20260503180006 | 63 | 100 | 7.8 | 15.6 | 0.00 | 0.00 | 0.00 | 64 | 1014.2 |
| 20260503175206 | 64 | 92 | 6.1 | 16.5 | 0.00 | 0.00 | 0.00 | 64 | 1013.9 |
| 20260503174705 | 64 | 150 | 6.1 | 16.5 | 0.00 | 0.00 | 0.00 | 64 | 1013.9 |
| 20260503174504 | 63 | 122 | 5.2 | 16.5 | 0.00 | 0.00 | 0.00 | 64 | 1014.3 |
| 20260503174206 | 64 | 128 | 7.0 | 13.0 | 0.00 | 0.00 | 0.00 | 63 | 1013.9 |
| 20260503173705 | 64 | 78 | 7.0 | 20.9 | 0.00 | 0.00 | 0.00 | 63 | 1013.9 |
| 20260503173206 | 64 | 77 | 7.0 | 20.9 | 0.00 | 0.00 | 0.00 | 63 | 1013.9 |
| 20260503173004 | 64 | 69 | 6.1 | 20.9 | 0.00 | 0.00 | 0.00 | 64 | 1014.3 |
| 20260503172705 | 64 | 123 | 7.0 | 19.1 | 0.00 | 0.00 | 0.00 | 63 | 1013.9 |
| 20260503172206 | 64 | 77 | 7.0 | 19.1 | 0.00 | 0.00 | 0.00 | 63 | 1013.8 |
| 20260503171705 | 64 | 64 | 7.0 | 14.8 | 0.00 | 0.00 | 0.00 | 63 | 1013.9 |
| 20260503171503 | 64 | 69 | 7.0 | 17.4 | 0.00 | 0.00 | 0.00 | 63 | 1014.2 |
| 20260503171206 | 64 | 101 | 7.0 | 14.8 | 0.00 | 0.00 | 0.00 | 63 | 1013.8 |
| 20260503170705 | 64 | 151 | 7.0 | 14.8 | 0.00 | 0.00 | 0.00 | 63 | 1014.0 |
| 20260503170206 | 64 | 113 | 7.8 | 14.8 | 0.00 | 0.00 | 0.00 | 63 | 1014.1 |
| 20260503160205 | 65 | 77 | 8.7 | 17.4 | 0.00 | 0.00 | 0.00 | 62 | 1014.1 |
| 20260503150205 | 66 | 69 | 7.8 | 15.6 | 0.00 | 0.00 | 0.00 | 59 | 1014.5 |
| 20260503140205 | 67 | 117 | 9.6 | 19.1 | 0.00 | 0.00 | 0.00 | 59 | 1014.9 |
| 20260503131205 | 67 | 103 | 8.7 | 15.6 | 0.00 | 0.00 | 0.00 | 57 | 1015.3 |
| 20260503130705 | 67 | 108 | 7.8 | 19.1 | 0.00 | 0.00 | 0.00 | 56 | 1015.3 |
| 20260503130205 | 67 | 112 | 7.0 | 19.1 | 0.00 | 0.00 | 0.00 | 57 | 1015.3 |
| 20260503120205 | 67 | 132 | 7.8 | 14.8 | 0.00 | 0.00 | 0.00 | 58 | 1015.9 |
| 20260503110705 | 66 | 107 | 9.6 | 20.9 | 0.00 | 0.00 | 0.00 | 58 | 1016.2 |
| 20260503110205 | 66 | 117 | 9.6 | 20.9 | 0.00 | 0.00 | 0.00 | 57 | 1016.2 |
| 20260503090205 | 66 | 105 | 7.8 | 14.8 | 0.00 | 0.00 | 0.00 | 59 | 1015.7 |
| 20260503081543 | 64 | 116 | 3.5 | 12.2 | 0.00 | 0.00 | 0.00 | 61 | 1016.1 |
| 20260503081205 | 65 | 105 | 5.2 | 11.3 | 0.00 | 0.00 | 0.00 | 61 | 1015.8 |
| 20260503080705 | 65 | 62 | 5.2 | 13.9 | 0.00 | 0.00 | 0.00 | 61 | 1015.8 |
| 20260503080205 | 64 | 98 | 6.1 | 13.9 | 0.00 | 0.00 | 0.00 | 61 | 1015.7 |
| 20260503072706 | 64 | 111 | 7.0 | 13.0 | 0.00 | 0.00 | 0.00 | 61 | 1015.7 |
| 20260503072205 | 64 | 71 | 7.0 | 13.0 | 0.00 | 0.00 | 0.00 | 61 | 1015.7 |
| 20260503071705 | 64 | 118 | 6.1 | 12.2 | 0.00 | 0.00 | 0.00 | 61 | 1015.6 |
| 20260503071533 | 63 | 81 | 6.1 | 12.2 | 0.00 | 0.00 | 0.00 | 61 | 1015.9 |
| 20260503071206 | 64 | 86 | 6.1 | 12.2 | 0.00 | 0.00 | 0.00 | 61 | 1015.5 |
| 20260503070206 | 64 | 122 | 6.1 | 14.8 | 0.00 | 0.00 | 0.00 | 61 | 1015.6 |
| 20260503060205 | 63 | 116 | 7.0 | 14.8 | 0.00 | 0.00 | 0.00 | 62 | 1015.1 |
| 20260503054705 | 63 | 86 | 7.0 | 13.9 | 0.00 | 0.00 | 0.00 | 63 | 1015.1 |
| 20260503054512 | 62 | 99 | 6.1 | 13.9 | 0.00 | 0.00 | 0.00 | 63 | 1015.4 |
| 20260503054205 | 63 | 119 | 7.0 | 10.4 | 0.00 | 0.00 | 0.00 | 63 | 1015.1 |
| 20260503053205 | 63 | 104 | 5.2 | 9.6 | 0.00 | 0.00 | 0.00 | 63 | 1014.9 |
| 20260503053008 | 62 | 113 | 5.2 | 10.4 | 0.00 | 0.00 | 0.00 | 63 | 1015.3 |
| 20260503052705 | 62 | 74 | 5.2 | 9.6 | 0.00 | 0.00 | 0.00 | 63 | 1015.0 |
| 20260503051705 | 62 | 90 | 4.3 | 13.0 | 0.00 | 0.00 | 0.00 | 63 | 1014.9 |
| 20260503051503 | 62 | 84 | 5.2 | 8.7 | 0.00 | 0.00 | 0.00 | 63 | 1015.3 |
| 20260503051205 | 62 | 165 | 4.3 | 13.0 | 0.00 | 0.00 | 0.00 | 63 | 1014.9 |
| 20260503050705 | 62 | 125 | 6.1 | 11.3 | 0.00 | 0.00 | 0.00 | 64 | 1014.9 |
| 20260503050002 | 61 | 108 | 5.2 | 11.3 | 0.00 | 0.00 | 0.00 | 65 | 1015.2 |
| 20260503045705 | 62 | 86 | 4.3 | 11.3 | 0.00 | 0.00 | 0.00 | 65 | 1014.8 |
| 20260503045206 | 62 | 80 | 5.2 | 11.3 | 0.00 | 0.00 | 0.00 | 66 | 1014.8 |
| 20260503044705 | 62 | 67 | 4.3 | 9.6 | 0.00 | 0.00 | 0.00 | 66 | 1014.8 |
| 20260503044559 | 61 | 105 | 5.2 | 11.3 | 0.00 | 0.00 | 0.00 | 66 | 1015.1 |
| 20260503044206 | 62 | 80 | 4.3 | 9.6 | 0.00 | 0.00 | 0.00 | 66 | 1014.7 |
| 20260503043705 | 62 | 43 | 5.2 | 15.6 | 0.00 | 0.00 | 0.00 | 66 | 1014.8 |
| 20260503043205 | 62 | 159 | 5.2 | 15.6 | 0.00 | 0.00 | 0.00 | 66 | 1014.7 |
| 20260503043101 | 61 | 92 | 6.1 | 9.6 | 0.00 | 0.00 | 0.00 | 66 | 1015.1 |
| 20260503042705 | 62 | 74 | 5.2 | 15.6 | 0.00 | 0.00 | 0.00 | 66 | 1014.8 |
| 20260503041705 | 62 | 88 | 4.3 | 12.2 | 0.00 | 0.00 | 0.00 | 65 | 1014.9 |
| 20260503041556 | 62 | 106 | 3.5 | 7.8 | 0.00 | 0.00 | 0.00 | 65 | 1015.2 |
| 20260503041205 | 62 | 99 | 5.2 | 12.2 | 0.00 | 0.00 | 0.00 | 65 | 1014.9 |
| 20260503040705 | 62 | 90 | 5.2 | 10.4 | 0.00 | 0.00 | 0.00 | 65 | 1014.9 |
| 20260503040205 | 62 | 156 | 5.2 | 15.6 | 0.00 | 0.00 | 0.00 | 64 | 1015.0 |
| 20260503040054 | 62 | 69 | 3.5 | 9.6 | 0.00 | 0.00 | 0.00 | 64 | 1015.4 |
| 20260503035705 | 63 | 65 | 6.1 | 16.5 | 0.00 | 0.00 | 0.00 | 64 | 1015.1 |
| 20260503034705 | 63 | 143 | 5.2 | 16.5 | 0.00 | 0.00 | 0.00 | 64 | 1015.1 |
| 20260503034554 | 62 | 94 | 2.6 | 16.5 | 0.00 | 0.00 | 0.00 | 64 | 1015.5 |
| 20260503034205 | 63 | 125 | 6.1 | 13.0 | 0.00 | 0.00 | 0.00 | 64 | 1015.1 |
| 20260503033705 | 63 | 76 | 4.3 | 10.4 | 0.00 | 0.00 | 0.00 | 65 | 1015.1 |
| 20260503033205 | 63 | 132 | 4.3 | 8.7 | 0.00 | 0.00 | 0.00 | 65 | 1015.1 |
| 20260503033052 | 62 | 115 | 3.5 | 9.6 | 0.00 | 0.00 | 0.00 | 65 | 1015.4 |
| 20260503032205 | 63 | 104 | 3.5 | 8.7 | 0.00 | 0.00 | 0.00 | 65 | 1015.2 |
| 20260503031725 | 63 | 85 | 2.6 | 11.3 | 0.00 | 0.00 | 0.00 | 65 | 1015.3 |
| 20260503031601 | 62 | 60 | 2.6 | 6.1 | 0.00 | 0.00 | 0.00 | 65 | 1015.6 |
| 20260503031205 | 63 | 153 | 3.5 | 11.3 | 0.00 | 0.00 | 0.00 | 65 | 1015.2 |
| 20260503030706 | 63 | 121 | 3.5 | 11.3 | 0.00 | 0.00 | 0.00 | 65 | 1015.4 |
| 20260503030206 | 63 | 104 | 2.6 | 7.0 | 0.00 | 0.00 | 0.00 | 65 | 1015.3 |
| 20260503030051 | 62 | 124 | 1.7 | 7.0 | 0.00 | 0.00 | 0.00 | 64 | 1015.6 |
| 20260503025705 | 63 | 82 | 2.6 | 9.6 | 0.00 | 0.00 | 0.00 | 64 | 1015.3 |
| 20260503025207 | 63 | 82 | 3.5 | 9.6 | 0.00 | 0.00 | 0.00 | 65 | 1015.4 |
| 20260503024705 | 63 | 107 | 2.6 | 9.6 | 0.00 | 0.00 | 0.00 | 64 | 1015.5 |
| 20260503024550 | 62 | 92 | 1.7 | 9.6 | 0.00 | 0.00 | 0.00 | 64 | 1015.9 |
| 20260503023205 | 63 | 48 | 4.3 | 13.9 | 0.00 | 0.00 | 0.00 | 64 | 1015.5 |
| 20260503023052 | 62 | 96 | 3.5 | 10.4 | 0.00 | 0.00 | 0.00 | 64 | 1015.8 |
| 20260503022705 | 63 | 98 | 5.2 | 13.9 | 0.00 | 0.00 | 0.00 | 64 | 1015.4 |
| 20260503022206 | 63 | 89 | 3.5 | 13.9 | 0.00 | 0.00 | 0.00 | 64 | 1015.5 |
| 20260503021705 | 63 | 103 | 3.5 | 12.2 | 0.00 | 0.00 | 0.00 | 64 | 1015.5 |
| 20260503021550 | 62 | 159 | 2.6 | 8.7 | 0.00 | 0.00 | 0.00 | 64 | 1015.9 |
| 20260503021205 | 63 | 138 | 5.2 | 12.2 | 0.00 | 0.00 | 0.00 | 64 | 1015.5 |
| 20260503020705 | 63 | 123 | 6.1 | 12.2 | 0.00 | 0.00 | 0.00 | 64 | 1015.5 |
| 20260503020205 | 63 | 138 | 5.2 | 9.6 | 0.00 | 0.00 | 0.00 | 65 | 1015.6 |
| 20260503020057 | 62 | 119 | 5.2 | 11.3 | 0.00 | 0.00 | 0.00 | 65 | 1016.0 |
| 20260503015705 | 63 | 111 | 5.2 | 11.3 | 0.00 | 0.00 | 0.00 | 65 | 1015.6 |
| 20260503014705 | 63 | 111 | 6.1 | 13.9 | 0.00 | 0.00 | 0.00 | 66 | 1015.5 |
| 20260503014553 | 62 | 101 | 5.2 | 12.2 | 0.00 | 0.00 | 0.00 | 66 | 1015.9 |
| 20260503013705 | 63 | 113 | 5.2 | 15.6 | 0.00 | 0.00 | 0.00 | 66 | 1015.4 |
| 20260503013205 | 63 | 153 | 6.1 | 15.6 | 0.00 | 0.00 | 0.00 | 66 | 1015.6 |
| 20260503013046 | 62 | 55 | 4.3 | 15.6 | 0.00 | 0.00 | 0.00 | 66 | 1015.9 |
| 20260503012705 | 63 | 72 | 6.1 | 13.9 | 0.00 | 0.00 | 0.00 | 66 | 1015.6 |
| 20260503011705 | 63 | 94 | 7.0 | 13.0 | 0.00 | 0.00 | 0.00 | 66 | 1015.6 |
| 20260503011557 | 63 | 105 | 6.1 | 13.9 | 0.00 | 0.00 | 0.00 | 66 | 1015.9 |
| 20260503011205 | 63 | 109 | 6.1 | 12.2 | 0.00 | 0.00 | 0.00 | 66 | 1015.6 |
| 20260503010205 | 63 | 123 | 6.1 | 13.9 | 0.00 | 0.00 | 0.00 | 66 | 1015.8 |
| 20260503010043 | 63 | 130 | 4.3 | 13.9 | 0.00 | 0.00 | 0.00 | 66 | 1016.3 |
| 20260503005705 | 63 | 98 | 5.2 | 13.9 | 0.00 | 0.00 | 0.00 | 66 | 1015.9 |
| 20260503005206 | 63 | 115 | 5.2 | 12.2 | 0.00 | 0.00 | 0.00 | 66 | 1015.9 |
| 20260503004705 | 63 | 115 | 5.2 | 12.2 | 0.00 | 0.00 | 0.00 | 66 | 1016.0 |
| 20260503004542 | 62 | 81 | 5.2 | 12.2 | 0.00 | 0.00 | 0.00 | 66 | 1016.3 |
| 20260503004205 | 63 | 79 | 5.2 | 13.0 | 0.00 | 0.00 | 0.00 | 66 | 1016.0 |
| 20260503003705 | 63 | 97 | 6.1 | 13.0 | 0.00 | 0.00 | 0.00 | 66 | 1016.1 |
| 20260503003205 | 63 | 117 | 5.2 | 13.0 | 0.00 | 0.00 | 0.00 | 66 | 1016.2 |
| 20260503003039 | 63 | 95 | 5.2 | 12.2 | 0.00 | 0.00 | 0.00 | 66 | 1016.5 |
| 20260503002705 | 63 | 173 | 4.3 | 13.0 | 0.00 | 0.00 | 0.00 | 66 | 1016.3 |
| 20260503002206 | 63 | 83 | 5.2 | 13.0 | 0.00 | 0.00 | 0.00 | 66 | 1016.3 |
| 20260503001705 | 63 | 89 | 7.0 | 12.2 | 0.00 | 0.00 | 0.00 | 65 | 1016.3 |
| 20260503001538 | 63 | 155 | 6.1 | 12.2 | 0.00 | 0.00 | 0.00 | 65 | 1016.7 |
| 20260503001205 | 63 | 98 | 6.1 | 13.0 | 0.00 | 0.00 | 0.00 | 65 | 1016.3 |
| 20260503000705 | 63 | 88 | 6.1 | 13.0 | 0.00 | 0.00 | 0.00 | 64 | 1016.4 |
| 20260503000205 | 63 | 107 | 7.0 | 13.0 | 0.00 | 0.00 | 0.00 | 65 | 1016.4 |
| 20260503000045 | 62 | 123 | 6.1 | 13.0 | 0.00 | 0.00 | 0.00 | 65 | 1016.9 |
| 20260502235705 | 63 | 81 | 6.1 | 13.9 | 0.00 | 0.00 | 0.00 | 65 | 1016.6 |
| 20260502235206 | 63 | 137 | 4.3 | 13.9 | 0.00 | 0.00 | 0.00 | 66 | 1016.6 |
| 20260502234705 | 63 | 120 | 5.2 | 13.9 | 0.00 | 0.00 | 0.00 | 66 | 1016.7 |
| 20260502234536 | 62 | 69 | 3.5 | 13.0 | 0.00 | 0.00 | 0.00 | 66 | 1017.0 |
| 20260502234206 | 63 | 88 | 6.1 | 10.4 | 0.00 | 0.00 | 0.00 | 66 | 1016.6 |
| 20260502233705 | 63 | 88 | 5.2 | 9.6 | 0.00 | 0.00 | 0.00 | 66 | 1016.6 |
| 20260502233205 | 63 | 78 | 5.2 | 10.4 | 0.00 | 0.00 | 0.00 | 66 | 1016.6 |
| 20260502233034 | 62 | 103 | 4.3 | 9.6 | 0.00 | 0.00 | 0.00 | 66 | 1017.0 |
| 20260502232705 | 63 | 98 | 5.2 | 10.4 | 0.00 | 0.00 | 0.00 | 66 | 1016.6 |
| 20260502232206 | 63 | 89 | 5.2 | 9.6 | 0.00 | 0.00 | 0.00 | 66 | 1016.8 |
| 20260502231705 | 63 | 88 | 4.3 | 9.6 | 0.00 | 0.00 | 0.00 | 66 | 1016.9 |
| 20260502231533 | 63 | 99 | 4.3 | 9.6 | 0.00 | 0.00 | 0.00 | 66 | 1017.2 |
| 20260502230032 | 63 | 92 | 2.6 | 16.5 | 0.00 | 0.00 | 0.00 | 64 | 1017.4 |
| 20260502225206 | 64 | 116 | 7.8 | 15.6 | 0.00 | 0.00 | 0.00 | 64 | 1016.7 |
| 20260502224705 | 64 | 115 | 9.6 | 16.5 | 0.00 | 0.00 | 0.00 | 64 | 1016.8 |
| 20260502224532 | 63 | 125 | 7.8 | 16.5 | 0.00 | 0.00 | 0.00 | 64 | 1017.1 |
| 20260502224206 | 63 | 115 | 8.7 | 16.5 | 0.00 | 0.00 | 0.00 | 64 | 1016.8 |
| 20260502223705 | 63 | 109 | 7.8 | 16.5 | 0.00 | 0.00 | 0.00 | 65 | 1016.9 |
| 20260502223205 | 63 | 119 | 7.8 | 16.5 | 0.00 | 0.00 | 0.00 | 65 | 1017.1 |
| 20260502223029 | 63 | 161 | 8.7 | 16.5 | 0.00 | 0.00 | 0.00 | 65 | 1017.4 |
| 20260502222705 | 63 | 130 | 6.1 | 13.9 | 0.00 | 0.00 | 0.00 | 65 | 1017.3 |
| 20260502222204 | 63 | 138 | 6.1 | 13.9 | 0.00 | 0.00 | 0.00 | 66 | 1017.3 |
| 20260502221705 | 63 | 130 | 5.2 | 13.9 | 0.00 | 0.00 | 0.00 | 66 | 1017.3 |
| 20260502221532 | 63 | 133 | 5.2 | 14.8 | 0.00 | 0.00 | 0.00 | 66 | 1017.7 |
| 20260502221206 | 63 | 153 | 5.2 | 11.3 | 0.00 | 0.00 | 0.00 | 66 | 1017.4 |
| 20260502220206 | 63 | 121 | 5.2 | 13.0 | 0.00 | 0.00 | 0.00 | 66 | 1017.3 |
| 20260502220023 | 63 | 75 | 6.1 | 10.4 | 0.00 | 0.00 | 0.00 | 66 | 1017.6 |
| 20260502215705 | 63 | 111 | 5.2 | 13.0 | 0.00 | 0.00 | 0.00 | 66 | 1017.3 |